This demonstration page uses our WeatherBlox Daily Observations layout. Learn more.

Left ArrowRight Arrow

36.17497, -115.13722

Hourly Observations for October 11, 2021

Temp ( °F °C ) Dew Point ( °F °C ) Humidity (%) Winds ( mph kmh ) Pressure ( in mb ) Visibility ( mi km ) Precip ( " mm )
12:53 am 00:53 Clear 62 16.7 34 1.1 35 35 N N/A 29.82 1010 10 16 N/A
1:53 am 01:53 Clear 59 15 34 1.1 39 39 NW 3 6 29.79 1009 10 16 N/A
2:53 am 02:53 Clear 57 13.9 33 0.6 41 41 NNW 5 7 29.76 1008 10 16 N/A
3:53 am 03:53 Clear 57 13.9 31 -0.6 37 37 NW 5 7 29.73 1007 10 16 N/A
4:53 am 04:53 Clear 57 13.9 34 1.1 42 42 W 5 7 29.71 1006 10 16 N/A
5:53 am 05:53 Clear 56 13.3 33 0.6 42 42 N N/A 29.68 1005 10 16 N/A
6:53 am 06:53 Sunny 55 12.8 33 0.6 44 44 N N/A 29.65 1004 10 16 N/A
7:53 am 07:53 Sunny 58 14.4 35 1.7 42 42 NNW 3 6 29.64 1004 10 16 N/A
8:53 am 08:53 Sunny 64 17.8 32 undefined 30 30 ESE 7 11 29.59 1002 10 16 N/A
9:46 am 09:46 Sunny 71 21.7 23 -5 16 16 S 16 26 29.46 998 10 16 N/A
9:53 am 09:53 Sunny 72 22.2 23 -5 16 16 S 22 35 29.54 1000 10 16 N/A
10:53 am 10:53 Sunny 74 23.3 24 -4.4 15 15 SSW 15 24 29.50 999 10 16 N/A
11:53 am 11:53 Sunny 76 24.4 22 -5.6 13 13 SSW 23 37 29.47 998 10 16 N/A
12:53 pm 12:53 Sunny 77 25 24 -4.4 14 14 WSW 18 30 29.42 996 10 16 N/A
1:53 pm 13:53 Sunny with Blowing Dust 77 25 23 -5 13 13 SW 23 37 29.38 995 10 16 N/A
2:53 pm 14:53 Sunny with Blowing Dust 76 24.4 22 -5.6 13 13 SW 21 33 29.37 995 10 16 N/A
3:53 pm 15:53 Sunny with Blowing Dust 73 22.8 28 -2.2 19 19 WSW 22 35 29.38 995 10 16 N/A
4:53 pm 16:53 Partly Cloudy with Blowing Dust 69 20.6 24 -4.4 18 18 W 26 43 29.38 995 7 11 N/A
5:29 pm 17:29 Mostly Cloudy with Blowing Dust 64 17.8 36 2.2 35 35 NW 26 43 29.35 994 10 16 N/A
5:53 pm 17:53 Partly Cloudy with Light Rain 60 15.6 38 3.3 44 44 NW 37 59 29.43 997 10 16 0.00 0.00
6:53 pm 18:53 Clear with Light Rain 55 12.8 35 1.7 47 47 NW 38 61 29.44 997 10 16 0.00 0.00
7:53 pm 19:53 Clear with Light Rain 51 10.6 35 1.7 54 54 NW 46 74 29.46 998 10 16 0.00 0.00
8:53 pm 20:53 Cloudy with Light Rain 50 10 34 1.1 54 54 NW 35 56 29.49 999 10 16 0.00 0.00
9:53 pm 21:53 Cloudy with Rain 49 9.4 36 2.2 61 61 NW 32 52 29.50 999 7 11 0.00 0.00
10:53 pm 22:53 Cloudy with Blowing Dust 50 10 35 1.7 57 57 NW 24 39 29.52 1000 10 16 0.00 0.00
11:53 pm 23:53 Cloudy with Blowing Dust 50 10 34 1.1 54 54 NW 28 44 29.52 1000 10 16 0.00 0.00

Powered by AerisWeather